Tracking 19485 objects as of 22-Jan-2019
HD Live streaming from Space Station
objects crossing your sky now

OPTUS A1 (AUSSAT 1)

Track OPTUS A1 (AUSSAT 1) now!
OPTUS A1 (AUSSAT 1) is classified as:


NORAD ID: 15993
Int'l Code: 1985-076B
Perigee: 35,903.0 km
Apogee: 35,975.3 km
Inclination: 15.2 °
Period: 1,443.5 minutes
Semi major axis: 42310 km
RCS: 1 m2 (large)
Launch date: August 27, 1985
Source: Australia (AUS)
Launch site: AIR FORCE EASTERN TEST RANGE (AFETR)
aabbcc
Your satellite tracking list
Your tracking list is empty




NASA's NSSDC Master Catalog

Two Line Element Set (TLE):
1 15993U 85076B   19020.50834432  .00000060  00000-0  00000+0 0  9999
2 15993  15.2473   1.2840 0008553 316.4901  48.6037  0.99755343 92601
Source of the keplerian elements: AFSPC